[[{"header":{"parameterUnit":"m.s-1","parameterCategory":1,"la1":30.2991,"la2":30.254,"lo1":-89.0895,"lo2":-89.0444,"dy":0.0017,"dx":0.0017,"nx":28,"ny":28,"refTime":"2025-03-29T21:00:00:Z","depth":0,"parameterNumber":2,"parameterNumberName":"U-component_of_WINDS"},"data":[0,0,0,0,0,0,0,0,0,0,0,0,0,0,0,0,0,0,0,0,0,0,0,0,0,0,0,0,0,0,0,0,0,0,0,0,0,0,0,0,0,0,0,0,0,0,0,0,0,0,0,0,0,0,0,0,0,0,2.4342,2.4341,0,2.4326,2.4325,2.4325,2.4284,2.4283,2.4282,2.4282,2.4267,2.4267,2.4268,0,0,0,0,0,0,0,0,0,0,0,0,0,2.4342,2.4342,2.4342,2.4341,2.4341,2.4326,2.4325,2.4325,2.4284,2.4283,2.4282,2.4281,2.4267,2.4267,2.4268,0,0,0,0,0,0,0,0,0,0,0,0,0,2.4335,2.4342,2.4342,2.4319,2.4317,2.4326,2.4325,2.4325,2.4285,2.4283,2.4282,2.4281,2.4266,2.4267,2.4268,2.4298,0,0,2.427,2.427,0,0,0,0,0,0,0,0,2.4336,2.4335,2.4322,2.4321,2.4318,2.4306,2.432,2.4316,2.4285,2.4297,2.4282,2.428,2.4281,2.428,2.428,2.4297,2.4297,2.427,2.427,2.427,2.4271,0,0,0,0,0,0,0,2.4336,2.4336,2.4335,2.4322,2.432,2.4311,2.4309,2.4319,2.4296,2.4296,2.4293,2.4291,2.4279,2.428,2.428,2.4296,2.427,2.427,2.4271,2.4271,2.4342,2.4344,0,0,0,0,0,0,2.4339,2.4336,2.4336,2.4335,2.4324,2.4312,2.431,2.4311,2.4296,2.4293,2.4292,2.4289,2.4279,2.4279,2.4279,2.4316,2.427,2.4271,2.4271,2.4341,2.4343,2.4344,0,0,0,0,0,0,2.434,2.434,2.4336,2.4335,2.4334,2.4314,2.4316,2.4311,2.4311,2.4294,2.429,2.4296,2.4278,2.4278,2.4294,2.4315,2.4271,2.4272,2.4339,2.4342,2.4344,2.4389,0,0,0,0,0,0,2.434,2.434,2.435,2.4335,2.4334,2.4351,2.4317,2.4312,2.4312,2.4308,2.4296,2.4293,2.4277,2.4294,2.4295,2.4315,2.4272,2.4337,2.434,2.4343,2.4386,2.4393,2.4399,0,0,0,0,0,2.434,2.4363,2.435,2.4351,2.4346,2.4352,2.4352,2.4332,2.4314,2.4325,2.4315,2.4294,2.4313,2.4296,2.4297,2.4317,2.4336,2.4339,2.4343,2.4383,2.4391,2.4399,0,0,0,0,0,0,2.4379,2.436,2.4346,2.4365,2.4361,2.4345,2.4358,2.4341,2.4342,2.4338,2.4314,2.4312,2.4333,2.4327,2.4308,2.4348,2.4321,2.4325,2.4351,2.4359,2.4366,2.4367,2.4273,0,0,0,0,0,2.439,2.4396,2.4379,2.4397,2.4396,2.4378,2.438,2.4366,2.436,2.4358,2.4348,2.4345,2.4351,2.4354,2.4358,2.4385,2.4384,2.44,2.4407,2.4412,2.4416,2.4433,2.4441,2.4356,2.4356,2.4356,0,0,2.4412,2.4403,2.4408,2.4405,2.44,2.4409,2.4376,2.4385,2.4392,2.436,2.4375,2.4369,2.4363,2.4386,2.4396,2.4382,2.444,2.4416,2.4421,2.4422,2.4438,2.4446,2.4453,2.4358,2.4358,2.4357,0,0,2.4458,2.445,2.4466,2.4462,2.4456,2.4444,2.4448,2.4437,2.4431,2.4447,2.4424,2.4432,2.4441,2.4439,2.444,2.449,2.4472,2.4492,2.4526,2.4544,2.455,2.4556,2.4577,2.4584,2.4496,2.4496,2.4496,0,2.4486,2.4497,2.4476,2.4488,2.4489,2.4462,2.4479,2.4477,2.4472,2.4475,2.4459,2.4473,2.4467,2.4491,2.4504,2.4504,2.451,2.4493,2.4551,2.4557,2.4562,2.4581,2.4589,2.4499,2.4498,2.4498,2.4498,0,2.4534,2.4542,2.4556,2.4554,2.4556,2.4571,2.4555,2.4561,2.4548,2.4539,2.4557,2.455,2.4554,2.4558,2.4544,2.4582,2.4574,2.4555,2.4527,2.4573,2.4591,2.4598,2.4502,2.4502,2.4501,2.45,0,0,2.46,2.4589,2.4595,2.4595,2.4588,2.4595,2.4611,2.4615,2.4621,2.462,2.4634,2.4645,2.4629,2.463,2.4616,2.4632,2.4676,2.4611,2.4611,2.4626,2.472,2.4735,2.4744,2.4664,2.4666,2.4667,2.4722,0,2.4645,2.4669,2.4654,2.4681,2.4691,2.4667,2.4681,2.468,2.4673,2.4681,2.4674,2.4683,2.466,2.4661,2.4675,2.4668,2.4695,2.4663,2.4679,2.468,2.4682,2.4753,2.4768,2.4819,2.4728,2.4729,2.473,0,2.4699,2.4702,2.4731,2.4726,2.473,2.4742,2.4747,2.4755,2.4754,2.4749,2.4752,2.4736,2.4754,2.4727,2.4752,2.4731,2.4737,2.4735,2.4737,2.4738,2.4708,2.4758,2.4835,2.4844,2.474,2.474,2.4739,0,2.4747,2.4759,2.4779,2.4779,2.4773,2.4784,2.4782,2.478,2.4785,2.479,2.4794,2.4801,2.4805,2.4811,2.4799,2.478,2.4828,2.4799,2.4825,2.4826,2.4836,2.4835,2.4917,2.4838,2.4838,2.4838,2.4838,0,2.4799,2.4818,2.4801,2.4813,2.4836,2.4819,2.4842,2.4838,2.4838,2.4851,2.483,2.4843,2.4826,2.4838,2.4829,2.4853,2.4854,2.4852,2.4849,2.4854,2.4855,2.4858,2.4855,2.484,2.4839,2.4839,2.4839,0,2.4856,2.4845,2.4865,2.486,2.4859,2.4876,2.4872,2.4885,2.4878,2.4895,2.4898,2.4888,2.4902,2.4891,2.4903,2.4897,2.493,2.4922,2.4931,2.4929,2.4957,2.4955,2.5044,2.5056,2.4968,2.4969,2.497,0,2.4889,2.4904,2.4901,2.4909,2.4909,2.4921,2.4927,2.4912,2.492,2.4923,2.4936,2.4948,2.4957,2.498,2.4975,2.4986,2.4979,2.5009,2.498,2.4986,2.4982,2.4982,2.4985,2.5015,2.5016,2.5017,2.5018,0,2.4951,2.4947,2.4955,2.4964,2.4972,2.4978,2.4983,2.499,2.4976,2.4986,2.5,2.5007,2.5022,2.5036,2.5046,2.5045,2.5031,2.5028,2.5035,2.504,2.5045,2.5045,2.4948,2.5025,2.5024,2.5024,2.5024,2.5023,2.4999,2.5013,2.5014,2.5026,2.5029,2.5035,2.5047,2.5044,2.5055,2.5066,2.5058,2.5076,2.508,2.5091,2.5094,2.5109,2.5097,2.5106,2.5109,2.5112,2.5117,2.5043,2.5111,2.511,2.511,2.511,2.511,0,2.5062,2.5062,2.5074,2.5082,2.5093,2.5079,2.5084,2.5095,2.5111,2.5115,2.5126,2.5144,2.5158,2.5156,2.5169,2.5182,2.5176,2.5187,2.5186,2.5187,2.5126,2.512,2.5192,2.5192,2.5192,2.5192,2.5192,2.5192,2.5095,2.5119,2.5115,2.5142,2.5142,2.516,2.5165,2.5172,2.5176,2.5198,2.521,2.5209,2.5212,2.5226,2.5239,2.5239,2.5245,2.5259,2.5256,2.5199,2.5191,2.5183,2.5177,2.526,2.526,2.5315,2.5316,2.5316]},{"header":{"parameterUnit":"m.s-1","parameterCategory":1,"la1":30.2991,"la2":30.254,"lo1":-89.0895,"lo2":-89.0444,"dy":0.0017,"dx":0.0017,"nx":28,"ny":28,"refTime":"2025-03-29T21:00:00:Z","depth":0,"parameterNumber":3,"parameterNumberName":"V-component_of_WINDS"},"data":[0,0,0,0,0,0,0,0,0,0,0,0,0,0,0,0,0,0,0,0,0,0,0,0,0,0,0,0,0,0,0,0,0,0,0,0,0,0,0,0,0,0,0,0,0,0,0,0,0,0,0,0,0,0,0,0,0,0,2.8875,2.8879,0,2.9272,2.9277,2.9281,2.9419,2.9417,2.9416,2.9414,2.9821,2.9833,2.9845,0,0,0,0,0,0,0,0,0,0,0,0,0,2.8235,2.8246,2.8874,2.888,2.8885,2.9272,2.9277,2.9283,2.9419,2.9417,2.9415,2.9414,2.9817,2.9832,2.9847,0,0,0,0,0,0,0,0,0,0,0,0,0,2.856,2.8249,2.8874,2.8999,2.9015,2.9271,2.9277,2.9284,2.942,2.9417,2.9415,2.9413,2.9812,2.983,2.9849,3.0009,0,0,2.9905,2.9913,0,0,0,0,0,0,0,0,2.8542,2.8584,2.8976,2.8991,2.9009,2.9294,2.9201,2.9527,2.942,2.9266,2.9414,2.9412,2.9648,2.9679,2.9759,3.0028,3.0045,2.9906,2.9918,2.9926,2.9931,0,0,0,0,0,0,0,2.8519,2.8567,2.9032,2.8981,2.9002,2.9036,2.908,2.9263,2.9465,2.9279,2.929,2.9335,2.9656,2.9741,2.977,3.0051,2.9906,2.9922,2.9934,2.9941,3.0474,3.0477,0,0,0,0,0,0,2.8475,2.8548,2.9019,2.9044,2.8765,2.905,2.9099,2.9205,2.9463,2.95,2.9337,2.934,2.9711,2.9748,2.9784,2.9992,2.9925,2.9943,2.9953,3.0471,3.0475,3.0478,0,0,0,0,0,0,2.8461,2.8516,2.9003,2.8799,2.8864,2.9063,2.9181,2.9214,2.9299,2.9507,2.9543,2.9387,2.971,2.9759,2.9953,3.0008,2.9951,2.9968,3.0467,3.0472,3.0477,3.0406,0,0,0,0,0,0,2.8442,2.851,2.8573,2.8799,2.8874,2.9164,2.9184,2.9223,2.933,2.9338,2.9563,2.9598,2.9712,2.9924,2.9971,3.0032,2.9982,3.0463,3.047,3.0475,3.0404,3.0407,3.041,0,0,0,0,0,2.8419,2.8536,2.8575,2.8631,2.8956,2.9167,2.921,2.9339,2.9334,2.9399,2.9533,2.9591,2.9993,2.9943,2.9997,3.0064,3.0461,3.0468,3.0475,3.0403,3.0407,3.041,0,0,0,0,0,0,2.831,2.8568,2.8614,2.8808,2.8965,2.919,2.9276,2.9338,2.95,2.9501,2.9653,2.9703,2.9886,2.9994,2.9933,3.0234,3.023,3.0248,3.0157,3.0163,3.0166,3.0137,2.9997,0,0,0,0,0,2.8308,2.8458,2.8675,2.8825,2.8902,2.9075,2.9171,2.9257,2.9426,2.9493,2.9641,2.9802,2.9965,3.007,3.0231,3.0419,3.0472,3.0492,3.0495,3.0497,3.0512,3.0623,3.0635,3.0501,3.0501,3.0501,0,0,2.8307,2.8467,2.8551,2.8808,2.8939,2.9092,2.913,2.9288,2.9404,2.9517,2.971,2.9824,3.0014,3.0207,3.0299,3.0303,3.056,3.0506,3.0505,3.052,3.0631,3.0643,3.0655,3.0506,3.0505,3.0505,0,0,2.8383,2.8518,2.866,2.8791,2.899,2.9104,2.9138,2.9355,2.9435,2.9631,2.972,2.9859,3.0136,3.0269,3.0372,3.05,3.0561,3.0548,3.0565,3.0671,3.0682,3.0692,3.0741,3.0756,3.0561,3.0561,3.0561,0,2.8357,2.859,2.8724,2.888,2.8991,2.91,2.9246,2.9367,2.9607,2.9682,2.9682,3.0035,3.017,3.0397,3.0428,3.0507,3.0552,3.0525,3.067,3.0681,3.0693,3.0741,3.0759,3.0559,3.0559,3.0559,3.0559,0,2.8549,2.8709,2.88,2.9031,2.9152,2.9301,2.9459,2.9565,2.964,2.9755,2.9955,3.0121,3.0319,3.0379,3.0453,3.0617,3.0614,3.0639,3.064,3.0701,3.0749,3.0768,3.0555,3.0556,3.0557,3.0557,0,0,2.8569,2.8874,2.8905,2.9013,2.924,2.9367,2.9522,2.9717,2.9806,2.9968,3.0104,3.0336,3.0362,3.048,3.057,3.0662,3.0757,3.0678,3.0685,3.069,3.0952,3.0933,3.0952,3.0797,3.0801,3.0804,3.0937,0,2.8678,2.896,2.9086,2.9312,2.9463,2.9569,2.9705,2.9859,2.997,3.0115,3.0238,3.0402,3.0422,3.0495,3.0591,3.0725,3.0812,3.0717,3.0927,3.0933,3.0879,3.0977,3.0958,3.1075,3.0956,3.096,3.0962,0,2.8842,2.9007,2.9247,2.946,2.9528,2.9647,2.9838,2.9974,3.0152,3.0227,3.0358,3.0445,3.0613,3.0598,3.0833,3.0765,3.0858,3.0937,3.0945,3.0972,3.0953,3.101,3.1116,3.1134,3.0992,3.099,3.0988,0,2.8837,2.9118,2.93,2.9388,2.9639,2.9721,2.9829,3.0005,3.0115,3.028,3.0354,3.0535,3.0636,3.0775,3.0909,3.0886,3.1132,3.1128,3.1201,3.1198,3.1251,3.1246,3.1376,3.1304,3.1304,3.1303,3.1303,0,2.8947,2.9091,2.9301,2.9413,2.9578,2.9721,2.9881,2.9997,3.0153,3.029,3.0392,3.0518,3.0686,3.0834,3.0939,3.1119,3.1163,3.1229,3.1256,3.1223,3.1215,3.1288,3.1285,3.1308,3.1307,3.1306,3.1305,0,2.897,2.9116,2.9322,2.9543,2.9602,2.9714,2.9904,3.0018,3.0133,3.0306,3.0354,3.0537,3.0717,3.0863,3.1098,3.1169,3.1358,3.1387,3.1299,3.1314,3.1379,3.1372,3.1563,3.1597,3.1498,3.1499,3.15,0,2.9032,2.9146,2.938,2.9479,2.9587,2.9745,2.9859,3.0003,3.0117,3.033,3.0418,3.0605,3.0763,3.1045,3.1199,3.138,3.1416,3.147,3.1444,3.1407,3.1422,3.1415,3.1428,3.1474,3.1474,3.1474,3.1474,0,2.9128,2.9195,2.9354,2.954,2.9672,2.9825,2.998,3.0055,3.0229,3.0352,3.0538,3.066,3.0901,3.1086,3.1283,3.1396,3.1466,3.1481,3.1509,3.1477,3.1423,3.1457,3.131,3.1477,3.1477,3.1477,3.1476,3.1476,2.9176,2.9283,2.9465,2.964,2.9772,2.9915,3.0034,3.0165,3.0322,3.0531,3.0606,3.0797,3.0975,3.1247,3.136,3.1512,3.152,3.1557,3.1568,3.1576,3.1574,3.1395,3.1548,3.1548,3.1548,3.1549,3.1549,0,2.928,2.9403,2.9562,2.9777,2.9915,2.9967,3.0142,3.0254,3.0422,3.0581,3.0735,3.0949,3.113,3.1298,3.1487,3.1577,3.1614,3.1622,3.1619,3.1644,3.1555,3.1514,3.1589,3.1589,3.1589,3.1589,3.1589,3.1589,2.9351,2.9537,2.9626,2.9878,3.0001,3.0189,3.0285,3.0418,3.0547,3.0782,3.0933,3.1041,3.1206,3.1408,3.1576,3.1621,3.1688,3.1688,3.1742,3.1656,3.165,3.1644,3.1607,3.1701,3.1701,3.1819,3.182,3.1821]}]]